Location: Buckland
(65.9785°N, 161.1281°W)
Time: 04:25:50
(UTC+00:00)

Transit 4A - Pass Details

Date: 01 December 2020
Orbit: 864 x 980 km, 66.8° (Epoch: 26 January)

Event Time Altitude Azimuth Distance (km) Brightness Sun altitude
Rises 22:04:37 0° 264° (W) 3,682 11.0 1.9°
Reaches altitude 10° 22:07:11 10° 266° (W) 2,739 10.4 1.9°
Maximum altitude 22:13:39 84° 355° (N) 995 8.1 2.0°
Drops below altitude 10° 22:20:04 10° 84° (E) 2,722 10.4 2.0°
Sets 22:22:37 0° 86° (E) 3,659 11.0 2.0°
